Sorry, you need to enable JavaScript to visit this website.

MCST Banner Image

MODIS Events Routine Calibrations

Title Date UTC Year DOY Command Load Notes
SRCA Full Spectral Wed, 02/27/2019 14:39:01 to 15:30:42 2019 058 MOD_OA22_SRCA_FULL_SPECT_1.1 OA-22: SRCA Full Spectral Calibration Part 1 20W-lamp data collection is from 14:54:55-15:30:41.
SRCA Setup Wed, 02/27/2019 14:36:01 to 14:36:30 2019 058 MOD_SRCA_9_8_2_SETUP_CC.1 SRCA setup activity using lamps 1, 4, and 5, and in constant current feedback mode.
SD/SDSM Tue, 02/26/2019 21:23:30 to 21:32:18 2019 057 MOD_OA16_SDSM_SCRN_NO_DOOR_A.4 OA-16: SD/SDSM screened side A, no door movement.
Nighttime Day Mode Sat, 02/23/2019 16:06:08 2019 054 MOD_OA03_DAY_RATE.2 (1:53 late)
Lunar Roll Sat, 02/23/2019 15:21:34 to 15:25:20 2019 054 MOD_OA08_ROLL_MAN.3 (-9.1329 degrees)
Nighttime Day Mode Sat, 02/23/2019 15:13:04 2019 054 MOD_OA04_NIGHT_RATE.1 (1:53 early)
SD/SDSM Tue, 02/05/2019 21:07:12 to 21:16:00 2019 036 MOD_OA16_SDSM_SCRN_NO_DOOR_A.4 OA-16: SD/SDSM screened side A, no door movement.
SRCA Full Radiometric Mon, 02/04/2019 21:23:00 to 21:54:25 2019 035 MOD_OA19_SRCA_FULL_RAD.1 OA-19: SRCA Full Radiometric Calibration. S/C Night 21:29:44-22:02:43 Data Collect 21:39:01-21:54:24
SRCA Setup Mon, 02/04/2019 21:20:00 to 21:20:29 2019 035 MOD_SRCA_9_8_2_SETUP_CC.1 SRCA setup activity using 10W lamps 1 and 4, and 1W lamp 5, in constant current feedback mode
Nighttime Day Mode Fri, 01/25/2019 3:28:51 2019 025 MOD_OA03_DAY_RATE.2 (1:53 late)
Lunar Roll Fri, 01/25/2019 2:50:40 to 2:54:26 2019 025 MOD_OA08_ROLL_MAN.3 (-1.5543 degrees)
Nighttime Day Mode Fri, 01/25/2019 2:35:49 2019 025 MOD_OA04_NIGHT_RATE.1 (1:53 early)
SRCA 1 Watt Radiometric Wed, 01/23/2019 21:08:11 to Thu, 01/24/2019 0:38:46 2019 023 MOD_OA21_SRCA_1W_RAD_A.5 OA-21: 1W Radiometric Continuous Calibration. Data collection| 21:24:05-00:38:46 (Covering 15 minutes S/C night, day, night, day, and 15 minutes S/C night)
SRCA Setup Wed, 01/23/2019 21:05:11 to 21:05:40 2019 023 MOD_SRCA_9_8_1_SETUP_CC.1 SRCA setup activity using 10W lamps 1 and 4, and 1W lamp 6 (spare), in constant current feedback mode
SRCA Full Spatial Sat, 01/19/2019 21:15:45 to 22:04:03 2019 019 MOD_OA23_SRCA_FULL_SPAT.1 OA-23: SRCA Full Spatial Calibration Data Collect from 21:32:02-22:02:48 (centered in S/C Night) S/C Night 21:31:00-22:04:06.
SRCA Setup Sat, 01/19/2019 21:12:45 to 21:13:14 2019 019 MOD_SRCA_9_8_2_SETUP_CC.1 SRCA setup activity using 10W lamps 1 & 4 and 1W lamp 5 in constant current feedback mode
SD/SDSM Tue, 01/15/2019 20:50:19 to 20:59:07 2019 015 MOD_OA16_SDSM_SCRN_NO_DOOR_A.4 OA-16: SD/SDSM screened side A, no door movement.
Nighttime Day Mode Wed, 12/26/2018 16:28:56 2018 360 MOD_OA03_DAY_RATE.2 (1:53 late)
Lunar Roll Wed, 12/26/2018 16:03:18 to 16:07:04 2018 360 ATC MOD_OA08_ROLL_MAN.3 -2.6334 degrees
Nighttime Day Mode Wed, 12/26/2018 15:35:53 2018 360 MOD_OA04_NIGHT_RATE.1 (1:53 early)
SD/SDSM Tue, 12/25/2018 20:32:30 to 20:41:18 2018 359 MOD_OA16_SDSM_SCRN_NO_DOOR_A.4 OA-16: SD/SDSM screened side A, no door movement.
BB WU/CD Sat, 12/08/2018 2:00:00 2018 342 MOD_OA26_BB_290K_A.2 BB Temp Set to 290K for CP A Coefficient
BB WU/CD Fri, 12/07/2018 5:00:30 2018 341 MOD_OA26_BB_DCYCLE_THIRD.1 Set blackbody heater duty cycle to THIRD
BB WU/CD Fri, 12/07/2018 5:00:00 2018 341 ATC MOD_OA26_BB_270K_A.2 BB Temp Set to 270K for CP A Coefficients
BB WU/CD Fri, 12/07/2018 2:00:30 2018 341 MOD_OA26_BB_DCYCLE_FULL.1 Set blackbody heater duty cycle to FULL
BB WU/CD Fri, 12/07/2018 2:00:00 2018 341 MOD_OA26_BB_315K_A.2 BB Temp Set to 315K for CP A Coefficients
BB WU/CD Thu, 12/06/2018 22:00:00 2018 340 MOD_OA26_BB_290K_A.2 BB Temp Set to 290K for CP A Coefficients
BB WU/CD Thu, 12/06/2018 19:00:00 2018 340 MOD_OA26_BB_285K_A.2 BB Temp Set to 285K for CP A Coefficients
BB WU/CD Thu, 12/06/2018 15:00:00 2018 340 MOD_OA26_BB_280K_A.2 BB Temp Set to 280K for CP A Coefficients
BB WU/CD Wed, 12/05/2018 21:00:00 2018 339 MOD_OA26_BB_270K_A.2 BB Temp Set to 270K for CP A Coefficients
SD/SDSM Tue, 12/04/2018 20:13:36 to 20:22:24 2018 338 MOD_OA16_SDSM_SCRN_NO_DOOR_A.4 OA-16: SD/SDSM screened side A, no door movement.
Nighttime Day Mode Tue, 11/27/2018 8:44:53 2018 331 MOD_OA03_DAY_RATE.2 (1:53 late)
Lunar Roll Tue, 11/27/2018 8:24:20 to 8:28:06 2018 331 MOD_OA08_ROLL_MAN.3 (-7.0677 degrees)
Nighttime Day Mode Tue, 11/27/2018 7:51:49 2018 331 MOD_OA04_NIGHT_RATE.1 (1:53 early)
Nighttime Day Mode Wed, 11/14/2018 22:34:23 2018 318 MOD_OA03_DAY_RATE.2 (10:00 late)
Nighttime Day Mode Wed, 11/14/2018 22:00:00 2018 318 MOD_OA04_NIGHT_RATE.1
Nighttime Day Mode Wed, 11/14/2018 21:40:00 2018 318 MOD_OA03_DAY_RATE.2
Nighttime Day Mode Wed, 11/14/2018 21:25:05 2018 318 MOD_OA04_NIGHT_RATE.1 (10:00 early)
SD/SDSM Tue, 11/13/2018 21:33:07 to 21:41:55 2018 317 MOD_OA16_SDSM_SCRN_NO_DOOR_A.4 OA-16: SD/SDSM screened side A, no door movement.
PV Ecal Sun, 11/11/2018 21:47:46 to 21:50:17 2018 315 MOD_OA27_PV_ECAL.3 OA-27: Photovoltaic bands electronics calibration. Centered on S/C maximum latitude.
SRCA Full Radiometric Mon, 11/05/2018 20:03:16 to 20:34:41 2018 309 ATC MOD_OA19_SRCA_FULL_RAD.1 OA-19: SRCA Full Radiometric Calibration. S/C Night 20:09:30-20:43:27 Data Collect 20:19:17-20:34:40
SRCA Setup Mon, 11/05/2018 20:00:16 to 20:00:45 2018 309 ATC MOD_SRCA_9_8_2_SETUP_CC.1 SRCA setup activity using 10W lamps 1 and 4, and 1W lamp 5, in constant current feedback mode
Nighttime Day Mode Mon, 10/29/2018 0:59:35 2018 302 ATC MOD_OA03_DAY_RATE.2 (1:53 late)
Lunar Roll Mon, 10/29/2018 0:40:16 to 0:44:02 2018 302 ATC MOD_OA08_ROLL_MAN.3 Lunar Roll Maneuver (-9.1530 degrees)
Nighttime Day Mode Mon, 10/29/2018 0:06:30 2018 302 ATC MOD_OA04_NIGHT_RATE.1 (1:53 early)
SD/SDSM Tue, 10/23/2018 21:13:00 to 21:21:48 2018 296 MOD_OA16_SDSM_SCRN_NO_DOOR_A.4 OA-16: SD/SDSM screened side A, no door movement.
SD/SDSM Wed, 10/03/2018 21:35:48 to 21:44:36 2018 276 ATC MOD_OA16_SDSM_SCRN_NO_DOOR_A.4 OA-16: SD/SDSM screened side A, no door movement.
Nighttime Day Mode Sat, 09/29/2018 15:34:21 2018 272 ATC MOD_OA03_DAY_RATE.2 (1:53 late)
Lunar Roll Sat, 09/29/2018 15:13:40 to 15:17:26 2018 272 ATC MOD_OA08_ROLL_MAN.3 Lunar Roll Maneuver (-8.0729 degrees)
Nighttime Day Mode Sat, 09/29/2018 14:41:16 2018 272 ATC MOD_OA04_NIGHT_RATE.1 (1:53 early)
CSV

Events Notes

See list of command loads